Ikermit

KL  EN  DA
ASIAQ
Weather Now GREENLAND SURVEY
Updated [WGT/WGST] Temperature [°C] Wind [m/s] Air pressure [hPa] Relative humidity [%] Precipitation [mm]
Present Wind chill Speed Max
24.09 03:00-3,5-9,75,7 ⇘7,7100854n/a
24.09 02:00-2,6-9,67,7 ⇘9,8100850n/a
24.09 01:00-2,4-9,37,7 ⇘9,8100845n/a
24.09 00:00-2,5-8,55,7 ⇘7,2100948n/a
23.09 23:00-2,2-8,87,2 ⇘10,3100846n/a
23.09 22:00-1,9-8,77,7 ⇘9,8100840n/a
23.09 21:00-1,9-8,77,7 ⇘10,3100844n/a
23.09 20:00-2,1-8,26,2 ⇒7,7100752n/a
23.09 19:00-1,5-7,97,2 ⇘9,8100745n/a
23.09 18:00-1,2-6,85,7 ⇘7,7100753n/a
23.09 17:00-1,0-5,64,1 ⇘6,2100750n/a
23.09 16:00-1,0-6,65,7 ⇘7,2100642n/a
23.09 15:00-1,3-6,34,6 ⇘5,7100648n/a
23.09 14:00-1,3-6,04,1 ⇒5,1100647n/a
23.09 13:00-1,7-6,84,6 ⇒5,7100650n/a
23.09 12:00-1,9-6,33,6 ⇓4,6100646n/a
23.09 11:00-2,3-7,95,1 ⇓6,7100545n/a
23.09 10:00-2,5-7,44,1 ⇓6,2100449n/a
23.09 09:00-3,0-9,66,7 ⇘9,3100449n/a
23.09 08:00-3,2-10,17,2 ⇓10,8100448n/a
23.09 07:00-3,3-12,312,9 ⇓17,0100246n/a
23.09 06:00-3,2-13,016,0 ⇓22,1100145n/a
23.09 05:00-1,0-9,212,9 ⇘18,0100135n/a
23.09 04:00-1,3-7,97,7 ⇘10,8100235n/a
23.09 03:00-1,2-8,910,8 ⇘15,4100137n/a
Position: (64.781944444,-40.30166666)

[Back]